TimeEST,TemperatureF,Dew PointF,Humidity,Sea Level PressureIn,VisibilityMPH,Wind Direction,Wind SpeedMPH,Gust SpeedMPH,PrecipitationIn,Events,Conditions,WindDirDegrees,DateUTC
12:53 AM,43.0,41.0,93,30.12,0.8,SW,3.5,-,N/A,,Mist,220,2013-01-13 05:53:00
1:53 AM,43.0,41.0,93,30.13,0.5,Calm,Calm,-,N/A,Fog,Fog,0,2013-01-13 06:53:00
2:07 AM,42.8,41.0,93,30.14,0.2,Calm,Calm,-,N/A,Fog,Fog,0,2013-01-13 07:07:00
2:44 AM,42.8,41.0,93,30.13,0.5,SW,3.5,-,0.01,Fog,Fog,230,2013-01-13 07:44:00
2:51 AM,42.8,41.0,93,30.13,0.2,SSW,3.5,-,0.01,Fog,Fog,210,2013-01-13 07:51:00
2:53 AM,43.0,41.0,93,30.12,0.2,SSW,3.5,-,0.01,Fog,Fog,210,2013-01-13 07:53:00
3:00 AM,42.8,41.0,93,30.13,0.5,SW,4.6,-,N/A,Fog,Fog,220,2013-01-13 08:00:00
3:14 AM,42.8,41.0,93,30.13,1.2,SW,4.6,-,N/A,,Overcast,220,2013-01-13 08:14:00
3:31 AM,42.8,41.0,93,30.12,3.0,SSW,5.8,-,N/A,,Overcast,210,2013-01-13 08:31:00
3:53 AM,43.0,42.1,97,30.10,5.0,SSW,4.6,-,N/A,,Overcast,200,2013-01-13 08:53:00
4:16 AM,44.6,42.8,93,30.10,7.0,SSW,4.6,-,N/A,,Overcast,200,2013-01-13 09:16:00
4:53 AM,44.1,42.1,93,30.09,6.0,South,4.6,-,N/A,,Overcast,180,2013-01-13 09:53:00
5:53 AM,44.1,42.1,93,30.09,6.0,Calm,Calm,-,N/A,,Overcast,0,2013-01-13 10:53:00
6:16 AM,44.6,42.8,93,30.11,3.0,Calm,Calm,-,N/A,,Overcast,0,2013-01-13 11:16:00
6:23 AM,42.8,42.8,100,30.11,2.0,Calm,Calm,-,N/A,,Overcast,0,2013-01-13 11:23:00
6:31 AM,42.8,42.8,100,30.11,1.8,Calm,Calm,-,N/A,,Overcast,0,2013-01-13 11:31:00
6:53 AM,44.1,41.0,89,30.11,1.8,South,4.6,-,N/A,,Overcast,190,2013-01-13 11:53:00
7:53 AM,44.1,41.0,89,30.13,1.2,Calm,Calm,-,N/A,,Overcast,0,2013-01-13 12:53:00
8:20 AM,44.6,42.8,93,30.13,0.8,South,3.5,-,N/A,,Overcast,190,2013-01-13 13:20:00
8:53 AM,44.1,42.1,93,30.13,0.8,SSW,3.5,-,N/A,,Overcast,210,2013-01-13 13:53:00
9:50 AM,46.4,44.6,93,30.14,2.0,SSW,3.5,-,N/A,,Overcast,200,2013-01-13 14:50:00
9:53 AM,46.0,44.1,93,30.13,2.0,SSW,3.5,-,N/A,,Overcast,200,2013-01-13 14:53:00
10:53 AM,46.9,45.0,93,30.12,1.8,Calm,Calm,-,N/A,,Overcast,0,2013-01-13 15:53:00
11:53 AM,46.9,46.0,97,30.10,1.8,South,4.6,-,N/A,,Overcast,180,2013-01-13 16:53:00
12:53 PM,48.0,46.0,93,30.06,1.2,South,5.8,-,N/A,,Overcast,190,2013-01-13 17:53:00
1:12 PM,48.2,46.4,93,30.06,2.5,South,5.8,-,N/A,,Overcast,190,2013-01-13 18:12:00
1:24 PM,48.2,46.4,93,30.06,3.0,South,6.9,-,N/A,,Overcast,190,2013-01-13 18:24:00
1:53 PM,50.0,46.9,89,30.06,5.0,SW,6.9,-,N/A,,Overcast,220,2013-01-13 18:53:00
2:13 PM,50.0,46.4,87,30.06,6.0,SSW,6.9,-,N/A,,Overcast,210,2013-01-13 19:13:00
2:53 PM,50.0,46.9,89,30.04,6.0,South,5.8,-,N/A,,Overcast,180,2013-01-13 19:53:00
3:53 PM,50.0,46.9,89,30.03,7.0,South,8.1,-,N/A,,Overcast,170,2013-01-13 20:53:00
4:53 PM,50.0,46.4,87,30.03,9.0,South,8.1,-,N/A,,Overcast,190,2013-01-13 21:53:00
5:53 PM,50.0,46.9,89,30.00,10.0,South,6.9,-,N/A,,Mostly Cloudy,190,2013-01-13 22:53:00
6:30 PM,48.2,46.4,93,30.00,10.0,South,9.2,-,N/A,,Scattered Clouds,180,2013-01-13 23:30:00
6:53 PM,48.9,46.9,93,29.99,10.0,South,8.1,-,N/A,,Clear,190,2013-01-13 23:53:00
7:38 PM,50.0,46.4,87,30.00,10.0,SW,6.9,-,N/A,,Mostly Cloudy,220,2013-01-14 00:38:00
7:53 PM,51.1,46.9,86,30.00,10.0,SW,8.1,-,N/A,,Overcast,230,2013-01-14 00:53:00
8:53 PM,51.1,46.9,86,29.99,10.0,SSW,6.9,-,N/A,,Overcast,200,2013-01-14 01:53:00
9:53 PM,51.1,46.9,86,29.98,10.0,SSW,10.4,-,N/A,,Overcast,200,2013-01-14 02:53:00
10:53 PM,52.0,46.9,83,29.97,10.0,SW,9.2,-,N/A,,Overcast,220,2013-01-14 03:53:00
11:32 PM,53.6,48.2,82,29.98,10.0,SW,9.2,-,N/A,,Overcast,220,2013-01-14 04:32:00
11:53 PM,53.1,48.0,83,29.97,10.0,SW,8.1,-,N/A,,Overcast,220,2013-01-14 04:53:00